Tracking 20621 objects as of 31-Mar-2020
HD Live streaming from Space Station
objects crossing your sky now

MORELOS 2

Track MORELOS 2 now!
MORELOS 2 is classified as:


NORAD ID: 16274
Int'l Code: 1985-109B
Perigee: 35,962.3 km
Apogee: 36,025.3 km
Inclination: 14.6 °
Period: 1,446.3 minutes
Semi major axis: 42364 km
RCS: 7.6304 m2 (large)
Launch date: November 27, 1985
Source: Mexico (MEX)
Launch site: AIR FORCE EASTERN TEST RANGE (AFETR)
aabbcc
Your satellite tracking list
Your tracking list is empty




NASA's NSSDC Master Catalog

Two Line Element Set (TLE):
1 16274U 85109B   20090.26924355 -.00000210 +00000-0 +00000-0 0  9994
2 16274 014.5962 014.5286 0007441 033.3300 167.9386 00.99562442023751
Source of the keplerian elements: AFSPC